sat.trackr.live / text

‹ back to catalog

KINEIS-4B

NORAD 63304 · 2025-056E

PAYLOAD ACTIVE UNKNOWN

§ Identity

Operator
Country
FR
Launch date
2025-03-18
Launch site
RLLB
Launch vehicle
Mass (kg)
RCS (m²)

External: N2YO · Heavens-Above · Gunter

§ Orbital elements

Epoch: 2026-05-25T07:29:21.589152Z

Period
97.81 min
Inclination
97.9094°
Eccentricity
0.0005807
Mean motion
14.72274186 rev/d
Perigee alt
649.7 km
Apogee alt
657.9 km
Semi-major
7,032.0 km
B*
2.1846e-4
RAAN
270.0232°
Arg perigee
26.0388°
Mean anomaly
334.1111°
Rev number
6,375

§ Raw data

KINEIS-4B1 63304U 25056E   26145.31205543  .00001332  00000+0  21846-3 0  99972 63304  97.9094 270.0232 0005807  26.0388 334.1111 14.72274186 63756

JSON: /api/v1/satellites/63304 · /tle

For live sub-satellite position, see the globe view (requires WebGL).

§ Visibility from observer

Set your observer location to see the next 7 days of passes ≥ 10°. The values pass through the URL so the page stays shareable.

No JS? Fill the form by hand. The geolocation button needs JavaScript.

§ Radio — SatNOGS DB

ModeDescriptionDownlinkUplink
BPSK PMT-A3 Mode U 400.651 MHz
BPSK S-band telemetry 2.261 GHz

2 transmitters · refreshed weekly from db.satnogs.org